Zurück zum Katalog

GEO-KOMPSAT-2B

AktivWissenschaftGEO
NORAD 45246·PAYLOAD·🇰🇷 South Korea

Gestartet Feb 18, 2020 von Guiana Space Centre

Loading…

TLE

AktuellSource: Space-Track

Epoche: Sep 14, 2026, 14:24 UTC

1 45246U 20013B   26257.60058112 -.00000352  00000-0  00000-0 0  9993
2 45246   0.0552 317.0944 0001043 271.4006 109.5641  1.00273109 24174

Verfolge GEO-KOMPSAT-2B in Echtzeit mit AllMySat

Download on the App Store